Content
SEND FEEDBACK

Daily
Averages
Monthly
Summary
Malaysia

KOTA KINABALU, MALAYSIA


Home > Asia > Malaysia
Elevation: 10 feet     Latitude: 05 55N     Longitude: 116 03E

WEATHER
 
SELECT A DAY
Number of Records: 281,008;   Date Range: 8/9/96 - 12/18/14
 
SHARE

PRINT THIS DATA

[ ← Previous Day ]
WEATHER ALMANAC - JANUARY 14, 2013
[ Next Day → ]
[ °C ]   °F
Weather ElementAverageHighLow
Temperature76.7 °F82.4 °F (12:30 pm)73.4 °F (9:30 pm)
Dewpoint74.6 °F77 °F (12:00 pm)73 °F (11:00 pm)
Humidity92.9 %100 % (2:00 am)79 % (1:30 pm)
Barometer29.85 in29.89 in (8:30 am)29.80 in (3:00 pm)
Wind Speed4.4 mph6.9 mph (5:30 am)
Weather ElementAverage
Visibility5.1 mi
Wind DirectionSSE (143.1 °)

Weather ElementTotal
Precipitation---
Cooling Degree Days12.9 (Base 65)
Growing Degree Days27.9 (Base 50)
Averaged from 55 records on January 14, 2013
WEATHER CONDITIONS BREAKOUT
WIND DIRECTION BREAKOUT
WEATHER BY HOUR - JANUARY 14, 2013
[ °C ]   °F
Local TimeTemperatureDewpointHumidityBarometerVisibilityWind DirectionWind SpeedGust SpeedPrecipitationEventsConditions
12:30 AM75.2 °F73.4 °F94 %29.83 in6.2 miEast (100°)3.5 mphRainLight Rain
1:00 AM75.2 °F73.4 °F94 %29.83 in6.2 miESE (110°)4.6 mphRainLight Rain
1:30 AM75.2 °F73.4 °F94 %29.83 in6.2 miEast (80°)4.6 mphRainLight Rain
2:00 AM75.0 °F74.0 °F98 %29.84 in6.0 miESE (120°)3.5 mphRainLight Rain
2:00 AM75.2 °F75.2 °F100 %29.83 in6.2 miESE (120°)3.5 mphRainLight Rain
2:30 AM75.2 °F75.2 °F100 %29.83 in6.2 miSE (140°)2.3 mphRainLight Rain
3:00 AM75.2 °F73.4 °F94 %29.83 in4.3 miSE (130°)3.5 mphRainLight Rain
3:30 AM75.2 °F73.4 °F94 %29.83 in3.1 miSouth (170°)3.5 mphRainRain
4:00 AM75.2 °F75.2 °F100 %29.83 in3.1 miSouth (180°)3.5 mphRainRain
4:30 AM75.2 °F75.2 °F100 %29.83 in2.5 miSSE (150°)2.3 mphRainRain
5:00 AM76.0 °F75.0 °F95 %29.85 in3.0 miSW (220°)2.3 mphRainRain
5:00 AM75.2 °F75.2 °F100 %29.83 in3.1 miSW (220°)2.3 mphRainRain
5:30 AM77.0 °F75.2 °F94 %29.83 in3.1 miWSW (240°)6.9 mphRainRain
6:00 AM75.2 °F75.2 °F100 %29.83 in3.7 miSSW (200°)6.9 mphRainRain
6:30 AM75.2 °F75.2 °F100 %29.86 in3.1 miSE (140°)3.5 mphRainRain
7:00 AM75.2 °F73.4 °F94 %29.86 in1.9 miSE (140°)3.5 mphRainRain
7:30 AM75.2 °F75.2 °F100 %29.86 in1.9 miSE (130°)3.5 mphRainRain
8:00 AM76.0 °F75.0 °F94 %29.88 in4.0 miSE (140°)3.5 mphRainLight Rain
8:00 AM75.2 °F75.2 °F100 %29.86 in3.7 miSE (140°)3.5 mphRainLight Rain
8:30 AM75.2 °F73.4 °F94 %29.89 in3.7 miESE (120°)4.6 mphRainLight Rain
9:00 AM75.2 °F73.4 °F94 %29.89 in2.5 miEast (80°)4.6 mphRainRain
9:30 AM75.2 °F73.4 °F94 %29.89 in2.5 miESE (120°)5.8 mphRainRain
10:00 AM75.2 °F75.2 °F100 %29.89 in3.7 miESE (110°)4.6 mphRainLight Rain
10:30 AM77.0 °F75.2 °F94 %29.89 in5.0 miESE (120°)5.8 mphRainLight Rain
11:00 AM77.0 °F74.0 °F89 %29.88 in7.0 miESE (120°)4.6 mphRainLight Rain
11:00 AM77.0 °F75.2 °F94 %29.86 in6.2 miESE (120°)4.6 mphRainLight Rain
11:30 AM78.8 °F75.2 °F89 %29.86 in6.2 miESE (120°)4.6 mphRainLight Rain
12:00 PM80.6 °F77.0 °F89 %29.86 in6.2 miEast (90°)2.3 mphOvercast
12:30 PM82.4 °F77.0 °F84 %29.86 in6.2 miENE (70°)5.8 mphOvercast
1:00 PM80.6 °F75.2 °F84 %29.83 in6.2 miNE (40°)4.6 mphOvercast
1:30 PM82.4 °F75.2 °F79 %29.83 in6.2 miNE (40°)3.5 mphOvercast
2:00 PM81.0 °F76.0 °F80 %29.83 in11.0 miNorth4.6 mphRainLight Rain
2:00 PM80.6 °F75.2 °F84 %29.83 in6.2 miNorth (360°)4.6 mphRainLight Rain
2:30 PM78.8 °F75.2 °F89 %29.83 in5.0 miNNW (330°)3.5 mphRainLight Rain
3:00 PM78.8 °F75.2 °F89 %29.80 in6.2 miNW (320°)2.3 mphRainLight Rain
3:30 PM80.6 °F75.2 °F84 %29.80 in6.2 miNNW (340°)2.3 mphOvercast
4:00 PM80.6 °F77.0 °F89 %29.80 in6.2 miENE (60°)5.8 mphOvercast
4:30 PM80.6 °F77.0 °F89 %29.83 in6.2 miEast (80°)6.9 mphOvercast
5:00 PM78.0 °F74.0 °F82 %29.84 in16.0 miEast (80°)6.9 mphPartly Cloudy
5:00 PM78.8 °F73.4 °F83 %29.83 in6.2 miEast (80°)6.9 mphOvercast
5:30 PM78.8 °F73.4 °F83 %29.83 in6.2 miNE (40°)3.5 mphOvercast
6:00 PM78.8 °F73.4 °F83 %29.83 in6.2 miNE (40°)5.8 mphOvercast
6:30 PM77.0 °F73.4 °F89 %29.86 in6.2 miNorth (360°)4.6 mphRainLight Rain
7:00 PM77.0 °F75.2 °F94 %29.86 in6.2 miEast (90°)3.5 mphRainLight Rain
7:30 PM77.0 °F75.2 °F94 %29.86 in6.2 miESE (110°)3.5 mphRainLight Rain
8:00 PM76.0 °F74.0 °F94 %29.89 in4.0 miNorth (350°)3.5 mphRainRain
8:00 PM75.2 °F75.2 °F100 %29.89 in3.7 miNorth (350°)3.5 mphRainRain
8:30 PM75.2 °F73.4 °F94 %29.89 in3.7 miEast (90°)3.5 mphRainRain
9:00 PM75.2 °F73.4 °F94 %29.89 in3.7 miENE (70°)6.9 mphRainRain
9:30 PM73.4 °F73.4 °F100 %29.89 in3.7 miEast (100°)5.8 mphRainRain
10:00 PM75.2 °F73.4 °F94 %29.89 in3.7 miESE (110°)4.6 mphRainRain
10:30 PM73.4 °F73.4 °F100 %29.89 in4.3 miSE (140°)4.6 mphRainLight Rain
11:00 PM74.0 °F73.0 °F95 %29.89 in4.0 miESE (120°)5.8 mphRainLight Rain
11:00 PM73.4 °F73.4 °F100 %29.89 in4.3 miESE (120°)5.8 mphRainLight Rain
11:30 PM73.4 °F73.4 °F100 %29.89 in5.0 miESE (110°)5.8 mphRainLight Rain
Hourly data recorded from WBKK, located miles away from Kota Kinabalu, Malaysia







STORIES FROM OUR PARTNERS